| time (UTC) | temp F | wind direction | speed MPH | gust MPH | rain 1hr in | rain 24hr in | rain mn in | humidity % | barometer mb |
| 20260510060549 | 86 | 360 | 5.0 | 9.0 | 0.00 | 0.00 | 0.00 | 15 | 971.4 |
| 20260510060050 | 86 | 360 | 4.0 | 10.0 | 0.00 | 0.00 | 0.00 | 16 | 971.3 |
| 20260510055551 | 86 | 360 | 7.0 | 13.0 | 0.00 | 0.00 | 0.00 | 15 | 971.3 |
| 20260510055049 | 86 | 360 | 9.0 | 12.0 | 0.00 | 0.00 | 0.00 | 15 | 971.3 |
| 20260510054549 | 87 | 360 | 6.0 | 10.0 | 0.00 | 0.00 | 0.00 | 15 | 971.1 |
| 20260510054049 | 88 | 360 | 5.0 | 10.0 | 0.00 | 0.00 | 0.00 | 13 | 971.1 |
| 20260510053548 | 89 | 360 | 3.0 | 9.0 | 0.00 | 0.00 | 0.00 | 16 | 971.1 |
| 20260510053053 | 90 | 360 | 5.0 | 9.0 | 0.00 | 0.00 | 0.00 | 15 | 971.2 |
| 20260510052550 | 92 | 360 | 4.0 | 12.0 | 0.00 | 0.00 | 0.00 | 13 | 971.1 |
| 20260510052049 | 93 | 360 | 8.0 | 12.0 | 0.00 | 0.00 | 0.00 | 10 | 971.0 |
| 20260510051602 | 93 | 360 | 5.0 | 13.0 | 0.00 | 0.00 | 0.00 | 10 | 971.1 |
| 20260510051048 | 94 | 360 | 7.0 | 13.0 | 0.00 | 0.00 | 0.00 | 10 | 971.0 |
| 20260510050553 | 94 | 360 | 8.0 | 12.0 | 0.00 | 0.00 | 0.00 | 9 | 970.9 |
| 20260510050059 | 94 | 360 | 7.0 | 13.0 | 0.00 | 0.00 | 0.00 | 9 | 971.1 |
| 20260510045549 | 94 | 360 | 7.0 | 13.0 | 0.00 | 0.00 | 0.00 | 9 | 971.0 |
| 20260510045049 | 94 | 360 | 7.0 | 13.0 | 0.00 | 0.00 | 0.00 | 9 | 970.9 |
| 20260510044549 | 95 | 360 | 7.0 | 12.0 | 0.00 | 0.00 | 0.00 | 9 | 970.9 |
| 20260510044049 | 95 | 360 | 8.0 | 12.0 | 0.00 | 0.00 | 0.00 | 9 | 970.7 |
| 20260510043549 | 95 | 360 | 7.0 | 13.0 | 0.00 | 0.00 | 0.00 | 9 | 970.8 |
| 20260510043049 | 95 | 360 | 8.0 | 13.0 | 0.00 | 0.00 | 0.00 | 9 | 970.7 |
| 20260510042549 | 95 | 360 | 4.0 | 11.0 | 0.00 | 0.00 | 0.00 | 9 | 970.6 |
| 20260510042049 | 95 | 360 | 6.0 | 12.0 | 0.00 | 0.00 | 0.00 | 8 | 970.6 |
| 20260510041551 | 95 | 360 | 6.0 | 12.0 | 0.00 | 0.00 | 0.00 | 9 | 970.6 |
| 20260510041049 | 95 | 360 | 6.0 | 10.0 | 0.00 | 0.00 | 0.00 | 9 | 970.5 |
| 20260510040551 | 95 | 360 | 3.0 | 10.0 | 0.00 | 0.00 | 0.00 | 8 | 970.4 |
| 20260510040053 | 95 | 360 | 7.0 | 10.0 | 0.00 | 0.00 | 0.00 | 8 | 970.4 |
| 20260510035549 | 95 | 360 | 5.0 | 10.0 | 0.00 | 0.00 | 0.00 | 8 | 970.4 |
| 20260510035049 | 95 | 360 | 5.0 | 10.0 | 0.00 | 0.00 | 0.00 | 8 | 970.3 |
| 20260510034549 | 96 | 360 | 4.0 | 10.0 | 0.00 | 0.00 | 0.00 | 8 | 970.3 |
| 20260510034049 | 96 | 360 | 5.0 | 10.0 | 0.00 | 0.00 | 0.00 | 8 | 970.2 |
| 20260510033549 | 96 | 360 | 5.0 | 8.0 | 0.00 | 0.00 | 0.00 | 8 | 970.3 |
| 20260510033056 | 97 | 360 | 5.0 | 11.0 | 0.00 | 0.00 | 0.00 | 8 | 970.3 |
| 20260510032549 | 97 | 360 | 5.0 | 11.0 | 0.00 | 0.00 | 0.00 | 8 | 970.0 |
| 20260510032049 | 97 | 360 | 6.0 | 11.0 | 0.00 | 0.00 | 0.00 | 8 | 970.0 |
| 20260510031551 | 97 | 360 | 4.0 | 10.0 | 0.00 | 0.00 | 0.00 | 8 | 969.9 |
| 20260510031049 | 97 | 360 | 4.0 | 10.0 | 0.00 | 0.00 | 0.00 | 8 | 969.9 |
| 20260510030548 | 97 | 360 | 5.0 | 10.0 | 0.00 | 0.00 | 0.00 | 8 | 969.9 |
| 20260510030049 | 98 | 360 | 5.0 | 10.0 | 0.00 | 0.00 | 0.00 | 8 | 969.6 |
| 20260510025549 | 98 | 360 | 6.0 | 10.0 | 0.00 | 0.00 | 0.00 | 8 | 969.5 |
| 20260510025049 | 98 | 360 | 4.0 | 10.0 | 0.00 | 0.00 | 0.00 | 8 | 969.6 |
| 20260510024549 | 98 | 360 | 6.0 | 11.0 | 0.00 | 0.00 | 0.00 | 8 | 969.5 |
| 20260510024048 | 98 | 360 | 6.0 | 11.0 | 0.00 | 0.00 | 0.00 | 8 | 969.5 |
| 20260510023549 | 98 | 360 | 6.0 | 12.0 | 0.00 | 0.00 | 0.00 | 8 | 969.4 |
| 20260510023049 | 98 | 360 | 5.0 | 13.0 | 0.00 | 0.00 | 0.00 | 8 | 969.3 |
| 20260510022549 | 98 | 360 | 6.0 | 14.0 | 0.00 | 0.00 | 0.00 | 8 | 969.4 |
| 20260510022049 | 98 | 360 | 6.0 | 14.0 | 0.00 | 0.00 | 0.00 | 8 | 969.4 |
| 20260510021640 | 99 | 360 | 6.0 | 11.0 | 0.00 | 0.00 | 0.00 | 8 | 969.2 |
| 20260510021048 | 99 | 360 | 5.0 | 10.0 | 0.00 | 0.00 | 0.00 | 9 | 969.2 |
| 20260510020549 | 99 | 360 | 6.0 | 11.0 | 0.00 | 0.00 | 0.00 | 9 | 969.2 |
| 20260510020050 | 99 | 285 | 8.0 | 11.0 | 0.00 | 0.00 | 0.00 | 8 | 969.3 |
| 20260510015552 | 99 | 271 | 7.0 | 11.0 | 0.00 | 0.00 | 0.00 | 9 | 969.1 |
| 20260510015048 | 99 | 289 | 6.0 | 12.0 | 0.00 | 0.00 | 0.00 | 9 | 969.2 |
| 20260510014556 | 100 | 292 | 9.0 | 13.0 | 0.00 | 0.00 | 0.00 | 9 | 969.1 |
| 20260510014049 | 100 | 360 | 9.0 | 15.0 | 0.00 | 0.00 | 0.00 | 9 | 969.2 |
| 20260510013549 | 100 | 360 | 10.0 | 16.0 | 0.00 | 0.00 | 0.00 | 8 | 969.2 |
| 20260510013058 | 100 | 360 | 11.0 | 18.0 | 0.00 | 0.00 | 0.00 | 8 | 969.1 |
| 20260510012549 | 100 | 360 | 11.0 | 18.0 | 0.00 | 0.00 | 0.00 | 8 | 969.1 |
| 20260510012049 | 101 | 360 | 12.0 | 17.0 | 0.00 | 0.00 | 0.00 | 9 | 969.2 |
| 20260510011549 | 101 | 360 | 11.0 | 15.0 | 0.00 | 0.00 | 0.00 | 9 | 969.2 |
| 20260510011048 | 101 | 360 | 10.0 | 20.0 | 0.00 | 0.00 | 0.00 | 8 | 969.1 |
| 20260510010548 | 101 | 360 | 14.0 | 20.0 | 0.00 | 0.00 | 0.00 | 8 | 968.9 |
| 20260510010056 | 101 | 360 | 10.0 | 17.0 | 0.00 | 0.00 | 0.00 | 8 | 969.2 |
| 20260510005549 | 101 | 360 | 10.0 | 18.0 | 0.00 | 0.00 | 0.00 | 8 | 969.2 |
| 20260510005048 | 101 | 360 | 11.0 | 18.0 | 0.00 | 0.00 | 0.00 | 8 | 969.2 |
| 20260510004549 | 102 | 360 | 11.0 | 16.0 | 0.00 | 0.00 | 0.00 | 8 | 969.1 |
| 20260510004049 | 102 | 360 | 10.0 | 17.0 | 0.00 | 0.00 | 0.00 | 8 | 969.1 |
| 20260510003549 | 102 | 360 | 11.0 | 17.0 | 0.00 | 0.00 | 0.00 | 7 | 969.2 |
| 20260510003049 | 102 | 360 | 13.0 | 18.0 | 0.00 | 0.00 | 0.00 | 8 | 969.3 |
| 20260510002550 | 102 | 360 | 12.0 | 19.0 | 0.00 | 0.00 | 0.00 | 8 | 969.2 |
| 20260510002049 | 102 | 360 | 14.0 | 19.0 | 0.00 | 0.00 | 0.00 | 8 | 969.2 |
| 20260510001549 | 102 | 360 | 12.0 | 19.0 | 0.00 | 0.00 | 0.00 | 8 | 969.2 |
| 20260510001049 | 102 | 360 | 8.0 | 14.0 | 0.00 | 0.00 | 0.00 | 8 | 969.4 |
| 20260510000548 | 102 | 360 | 10.0 | 15.0 | 0.00 | 0.00 | 0.00 | 8 | 969.3 |
| 20260510000050 | 102 | 360 | 8.0 | 17.0 | 0.00 | 0.00 | 0.00 | 8 | 969.3 |
| 20260509235549 | 102 | 360 | 12.0 | 17.0 | 0.00 | 0.00 | 0.00 | 8 | 969.4 |
| 20260509235049 | 102 | 360 | 12.0 | 19.0 | 0.00 | 0.00 | 0.00 | 8 | 969.6 |
| 20260509234549 | 102 | 360 | 13.0 | 19.0 | 0.00 | 0.00 | 0.00 | 8 | 969.5 |
| 20260509234049 | 103 | 360 | 12.0 | 18.0 | 0.00 | 0.00 | 0.00 | 8 | 969.4 |
| 20260509233550 | 102 | 360 | 7.0 | 16.0 | 0.00 | 0.00 | 0.00 | 8 | 969.5 |
| 20260509233049 | 102 | 360 | 11.0 | 16.0 | 0.00 | 0.00 | 0.00 | 8 | 969.6 |
| 20260509232549 | 103 | 360 | 8.0 | 18.0 | 0.00 | 0.00 | 0.00 | 8 | 969.5 |
| 20260509232049 | 103 | 360 | 9.0 | 18.0 | 0.00 | 0.00 | 0.00 | 8 | 969.5 |
| 20260509231551 | 103 | 360 | 10.0 | 15.0 | 0.00 | 0.00 | 0.00 | 9 | 969.5 |
| 20260509231049 | 102 | 360 | 9.0 | 16.0 | 0.00 | 0.00 | 0.00 | 9 | 969.6 |
| 20260509230549 | 102 | 360 | 11.0 | 16.0 | 0.00 | 0.00 | 0.00 | 9 | 969.7 |
| 20260509230051 | 102 | 360 | 8.0 | 15.0 | 0.00 | 0.00 | 0.00 | 9 | 969.5 |
| 20260509225548 | 103 | 360 | 10.0 | 16.0 | 0.00 | 0.00 | 0.00 | 9 | 969.7 |
| 20260509225048 | 103 | 360 | 7.0 | 13.0 | 0.00 | 0.00 | 0.00 | 9 | 969.9 |
| 20260509224549 | 103 | 360 | 9.0 | 13.0 | 0.00 | 0.00 | 0.00 | 8 | 969.9 |
| 20260509224049 | 103 | 360 | 6.0 | 16.0 | 0.00 | 0.00 | 0.00 | 8 | 969.8 |
| 20260509223549 | 103 | 360 | 7.0 | 15.0 | 0.00 | 0.00 | 0.00 | 9 | 969.8 |
| 20260509223052 | 103 | 360 | 6.0 | 15.0 | 0.00 | 0.00 | 0.00 | 9 | 970.1 |
| 20260509222549 | 102 | 360 | 11.0 | 15.0 | 0.00 | 0.00 | 0.00 | 9 | 970.1 |
| 20260509222049 | 103 | 360 | 8.0 | 15.0 | 0.00 | 0.00 | 0.00 | 9 | 970.1 |
| 20260509221550 | 103 | 360 | 7.0 | 15.0 | 0.00 | 0.00 | 0.00 | 8 | 970.2 |
| 20260509221049 | 103 | 360 | 8.0 | 12.0 | 0.00 | 0.00 | 0.00 | 9 | 970.2 |
| 20260509220548 | 102 | 360 | 6.0 | 11.0 | 0.00 | 0.00 | 0.00 | 9 | 970.4 |
| 20260509220051 | 102 | 360 | 4.0 | 11.0 | 0.00 | 0.00 | 0.00 | 9 | 970.4 |
| 20260509215550 | 102 | 360 | 6.0 | 14.0 | 0.00 | 0.00 | 0.00 | 9 | 970.5 |
| 20260509215050 | 102 | 360 | 10.0 | 15.0 | 0.00 | 0.00 | 0.00 | 9 | 970.6 |
| 20260509214549 | 102 | 360 | 9.0 | 16.0 | 0.00 | 0.00 | 0.00 | 10 | 970.6 |
| 20260509214049 | 102 | 360 | 8.0 | 18.0 | 0.00 | 0.00 | 0.00 | 11 | 970.8 |
| 20260509213549 | 102 | 360 | 12.0 | 18.0 | 0.00 | 0.00 | 0.00 | 10 | 970.9 |
| 20260509213103 | 102 | 360 | 8.0 | 17.0 | 0.00 | 0.00 | 0.00 | 9 | 970.8 |
| 20260509212548 | 102 | 360 | 12.0 | 17.0 | 0.00 | 0.00 | 0.00 | 9 | 971.0 |
| 20260509212048 | 102 | 360 | 6.0 | 13.0 | 0.00 | 0.00 | 0.00 | 10 | 971.1 |
| 20260509211554 | 102 | 360 | 9.0 | 13.0 | 0.00 | 0.00 | 0.00 | 11 | 971.1 |
| 20260509211049 | 102 | 360 | 3.0 | 13.0 | 0.00 | 0.00 | 0.00 | 10 | 971.1 |
| 20260509210549 | 102 | 360 | 4.0 | 14.0 | 0.00 | 0.00 | 0.00 | 10 | 971.3 |
| 20260509210051 | 101 | 360 | 5.0 | 14.0 | 0.00 | 0.00 | 0.00 | 9 | 971.4 |
| 20260509205552 | 101 | 360 | 8.0 | 14.0 | 0.00 | 0.00 | 0.00 | 10 | 971.5 |
| 20260509205049 | 101 | 360 | 6.0 | 14.0 | 0.00 | 0.00 | 0.00 | 10 | 971.6 |
| 20260509204549 | 101 | 360 | 6.0 | 14.0 | 0.00 | 0.00 | 0.00 | 10 | 971.7 |
| 20260509204049 | 101 | 360 | 10.0 | 14.0 | 0.00 | 0.00 | 0.00 | 10 | 971.9 |
| 20260509203548 | 101 | 360 | 4.0 | 12.0 | 0.00 | 0.00 | 0.00 | 10 | 971.9 |
| 20260509203049 | 100 | 360 | 6.0 | 17.0 | 0.00 | 0.00 | 0.00 | 9 | 971.9 |
| 20260509202549 | 100 | 360 | 10.0 | 17.0 | 0.00 | 0.00 | 0.00 | 9 | 972.0 |
| 20260509202049 | 100 | 360 | 9.0 | 21.0 | 0.00 | 0.00 | 0.00 | 9 | 972.1 |
| 20260509201549 | 100 | 360 | 11.0 | 21.0 | 0.00 | 0.00 | 0.00 | 8 | 972.2 |
| 20260509201048 | 100 | 360 | 11.0 | 14.0 | 0.00 | 0.00 | 0.00 | 9 | 972.2 |
| 20260509200549 | 99 | 360 | 3.0 | 11.0 | 0.00 | 0.00 | 0.00 | 10 | 972.3 |
| 20260509200053 | 99 | 360 | 7.0 | 14.0 | 0.00 | 0.00 | 0.00 | 11 | 972.4 |
| 20260509195548 | 99 | 360 | 8.0 | 14.0 | 0.00 | 0.00 | 0.00 | 11 | 972.4 |
| 20260509195048 | 99 | 360 | 7.0 | 14.0 | 0.00 | 0.00 | 0.00 | 11 | 972.5 |
| 20260509194556 | 98 | 360 | 9.0 | 14.0 | 0.00 | 0.00 | 0.00 | 11 | 972.6 |
| 20260509194049 | 97 | 360 | 4.0 | 9.0 | 0.00 | 0.00 | 0.00 | 13 | 972.6 |
| 20260509193548 | 97 | 360 | 6.0 | 9.0 | 0.00 | 0.00 | 0.00 | 14 | 972.6 |
| 20260509193049 | 97 | 360 | 7.0 | 10.0 | 0.00 | 0.00 | 0.00 | 13 | 972.7 |
| 20260509192548 | 97 | 360 | 4.0 | 11.0 | 0.00 | 0.00 | 0.00 | 14 | 972.9 |
| 20260509192049 | 97 | 360 | 7.0 | 11.0 | 0.00 | 0.00 | 0.00 | 14 | 973.0 |
| 20260509191603 | 98 | 360 | 4.0 | 8.0 | 0.00 | 0.00 | 0.00 | 14 | 973.0 |
| 20260509191048 | 98 | 360 | 5.0 | 8.0 | 0.00 | 0.00 | 0.00 | 13 | 973.0 |
| 20260509190552 | 97 | 360 | 2.0 | 9.0 | 0.00 | 0.00 | 0.00 | 14 | 973.2 |
| 20260509190050 | 97 | 360 | 3.0 | 9.0 | 0.00 | 0.00 | 0.00 | 14 | 973.3 |
| 20260509185549 | 97 | 360 | 4.0 | 8.0 | 0.00 | 0.00 | 0.00 | 14 | 973.2 |
| 20260509185048 | 97 | 360 | 3.0 | 6.0 | 0.00 | 0.00 | 0.00 | 14 | 973.3 |
| 20260509184557 | 97 | 360 | 0.0 | 6.0 | 0.00 | 0.00 | 0.00 | 15 | 973.5 |
| 20260509184048 | 96 | 360 | 3.0 | 8.0 | 0.00 | 0.00 | 0.00 | 15 | 973.5 |
| 20260509183549 | 96 | 360 | 4.0 | 8.0 | 0.00 | 0.00 | 0.00 | 15 | 973.6 |
| 20260509183054 | 95 | 360 | 0.0 | 8.0 | 0.00 | 0.00 | 0.00 | 15 | 973.6 |
| 20260509182549 | 94 | 360 | 4.0 | 9.0 | 0.00 | 0.00 | 0.00 | 15 | 973.7 |
| 20260509182051 | 94 | 360 | 1.0 | 9.0 | 0.00 | 0.00 | 0.00 | 16 | 973.7 |
| 20260509181553 | 94 | 360 | 5.0 | 10.0 | 0.00 | 0.00 | 0.00 | 16 | 973.7 |
| 20260509181049 | 94 | 360 | 4.0 | 10.0 | 0.00 | 0.00 | 0.00 | 16 | 973.8 |
| 20260509180549 | 94 | 360 | 3.0 | 10.0 | 0.00 | 0.00 | 0.00 | 16 | 973.9 |
| 20260509180058 | 94 | 360 | 5.0 | 10.0 | 0.00 | 0.00 | 0.00 | 16 | 974.0 |
| 20260509175554 | 93 | 360 | 4.0 | 10.0 | 0.00 | 0.00 | 0.00 | 16 | 974.1 |
| 20260509175049 | 93 | 360 | 6.0 | 10.0 | 0.00 | 0.00 | 0.00 | 16 | 974.0 |
| 20260509174549 | 94 | 360 | 4.0 | 9.0 | 0.00 | 0.00 | 0.00 | 16 | 974.1 |
| 20260509174049 | 94 | 360 | 3.0 | 5.0 | 0.00 | 0.00 | 0.00 | 16 | 974.1 |
| 20260509173548 | 93 | 360 | 1.0 | 8.0 | 0.00 | 0.00 | 0.00 | 15 | 974.1 |
| 20260509173102 | 93 | 360 | 3.0 | 9.0 | 0.00 | 0.00 | 0.00 | 16 | 974.2 |
| 20260509172549 | 93 | 360 | 4.0 | 9.0 | 0.00 | 0.00 | 0.00 | 16 | 974.2 |
| 20260509172049 | 93 | 360 | 3.0 | 6.0 | 0.00 | 0.00 | 0.00 | 16 | 974.2 |
| 20260509171550 | 93 | 360 | 0.0 | 6.0 | 0.00 | 0.00 | 0.00 | 16 | 974.2 |
| 20260509171048 | 92 | 360 | 3.0 | 8.0 | 0.00 | 0.00 | 0.00 | 16 | 974.2 |
| 20260509170549 | 91 | 360 | 2.0 | 9.0 | 0.00 | 0.00 | 0.00 | 17 | 974.3 |
| 20260509170049 | 90 | 360 | 4.0 | 9.0 | 0.00 | 0.00 | 0.00 | 17 | 974.5 |
| 20260509165549 | 90 | 360 | 3.0 | 10.0 | 0.00 | 0.00 | 0.00 | 18 | 974.4 |
| 20260509165048 | 89 | 360 | 5.0 | 10.0 | 0.00 | 0.00 | 0.00 | 18 | 974.4 |
| 20260509164549 | 90 | 360 | 3.0 | 10.0 | 0.00 | 0.00 | 0.00 | 18 | 974.3 |
| 20260509164049 | 89 | 360 | 4.0 | 9.0 | 0.00 | 0.00 | 0.00 | 19 | 974.5 |
| 20260509163550 | 88 | 360 | 3.0 | 12.0 | 0.00 | 0.00 | 0.00 | 19 | 974.4 |
| 20260509163052 | 88 | 360 | 4.0 | 10.0 | 0.00 | 0.00 | 0.00 | 18 | 974.4 |
| 20260509162549 | 88 | 360 | 5.0 | 11.0 | 0.00 | 0.00 | 0.00 | 19 | 974.3 |
| 20260509162049 | 87 | 360 | 6.0 | 11.0 | 0.00 | 0.00 | 0.00 | 19 | 974.4 |
| 20260509161559 | 87 | 360 | 7.0 | 12.0 | 0.00 | 0.00 | 0.00 | 19 | 974.4 |
| 20260509161049 | 87 | 360 | 5.0 | 11.0 | 0.00 | 0.00 | 0.00 | 19 | 974.4 |
| 20260509160549 | 87 | 360 | 7.0 | 12.0 | 0.00 | 0.00 | 0.00 | 18 | 974.4 |
| 20260509160049 | 86 | 360 | 5.0 | 12.0 | 0.00 | 0.00 | 0.00 | 19 | 974.2 |
| 20260509155548 | 86 | 360 | 7.0 | 10.0 | 0.00 | 0.00 | 0.00 | 20 | 974.4 |
| 20260509155048 | 85 | 360 | 5.0 | 11.0 | 0.00 | 0.00 | 0.00 | 21 | 974.4 |
| 20260509154551 | 85 | 360 | 6.0 | 11.0 | 0.00 | 0.00 | 0.00 | 21 | 974.3 |
| 20260509154048 | 84 | 360 | 6.0 | 11.0 | 0.00 | 0.00 | 0.00 | 21 | 974.3 |
| 20260509153549 | 84 | 360 | 7.0 | 10.0 | 0.00 | 0.00 | 0.00 | 21 | 974.3 |
| 20260509153058 | 84 | 360 | 7.0 | 10.0 | 0.00 | 0.00 | 0.00 | 21 | 974.5 |
| 20260509152549 | 83 | 360 | 7.0 | 10.0 | 0.00 | 0.00 | 0.00 | 21 | 974.5 |
| 20260509152049 | 83 | 360 | 7.0 | 10.0 | 0.00 | 0.00 | 0.00 | 22 | 974.4 |
| 20260509151549 | 83 | 360 | 5.0 | 10.0 | 0.00 | 0.00 | 0.00 | 23 | 974.4 |
| 20260509151049 | 82 | 360 | 7.0 | 10.0 | 0.00 | 0.00 | 0.00 | 22 | 974.4 |
| 20260509150548 | 82 | 360 | 6.0 | 10.0 | 0.00 | 0.00 | 0.00 | 24 | 974.5 |
| 20260509150049 | 81 | 360 | 6.0 | 10.0 | 0.00 | 0.00 | 0.00 | 25 | 974.4 |
| 20260509145549 | 81 | 360 | 7.0 | 11.0 | 0.00 | 0.00 | 0.00 | 26 | 974.4 |
| 20260509145049 | 80 | 360 | 9.0 | 12.0 | 0.00 | 0.00 | 0.00 | 25 | 974.3 |
| 20260509144551 | 80 | 360 | 9.0 | 12.0 | 0.00 | 0.00 | 0.00 | 26 | 974.3 |
| 20260509144048 | 79 | 360 | 9.0 | 12.0 | 0.00 | 0.00 | 0.00 | 26 | 974.3 |
| 20260509143549 | 79 | 360 | 8.0 | 13.0 | 0.00 | 0.00 | 0.00 | 26 | 974.3 |
| 20260509143049 | 79 | 360 | 9.0 | 13.0 | 0.00 | 0.00 | 0.00 | 26 | 974.3 |
| 20260509142548 | 78 | 360 | 10.0 | 13.0 | 0.00 | 0.00 | 0.00 | 26 | 974.1 |
| 20260509142048 | 78 | 360 | 9.0 | 13.0 | 0.00 | 0.00 | 0.00 | 26 | 974.1 |
| 20260509141549 | 77 | 360 | 10.0 | 13.0 | 0.00 | 0.00 | 0.00 | 25 | 974.1 |
| 20260509141049 | 77 | 360 | 11.0 | 13.0 | 0.00 | 0.00 | 0.00 | 25 | 974.0 |
| 20260509140551 | 76 | 360 | 9.0 | 14.0 | 0.00 | 0.00 | 0.00 | 25 | 973.9 |
| 20260509135549 | 76 | 360 | 9.0 | 12.0 | 0.00 | 0.00 | 0.00 | 25 | 973.9 |
| 20260509135049 | 76 | 360 | 9.0 | 12.0 | 0.00 | 0.00 | 0.00 | 25 | 973.7 |
| 20260509134551 | 77 | 360 | 8.0 | 12.0 | 0.00 | 0.00 | 0.00 | 24 | 973.7 |
| 20260509134049 | 79 | 360 | 7.0 | 12.0 | 0.00 | 0.00 | 0.00 | 23 | 973.6 |
| 20260509133551 | 83 | 360 | 10.0 | 12.0 | 0.00 | 0.00 | 0.00 | 20 | 973.5 |
| 20260509133049 | 85 | 360 | 2.0 | 6.0 | 0.00 | 0.00 | 0.00 | 16 | 973.4 |
| 20260509132548 | 85 | 360 | 3.0 | 8.0 | 0.00 | 0.00 | 0.00 | 15 | 973.2 |
| 20260509132048 | 84 | 360 | 3.0 | 9.0 | 0.00 | 0.00 | 0.00 | 15 | 973.0 |
| 20260509131549 | 84 | 360 | 3.0 | 10.0 | 0.00 | 0.00 | 0.00 | 16 | 973.1 |
| 20260509131048 | 84 | 360 | 6.0 | 12.0 | 0.00 | 0.00 | 0.00 | 16 | 973.1 |
| 20260509130549 | 84 | 360 | 8.0 | 14.0 | 0.00 | 0.00 | 0.00 | 16 | 973.0 |
| 20260509130049 | 84 | 360 | 10.0 | 17.0 | 0.00 | 0.00 | 0.00 | 16 | 972.8 |
| 20260509125549 | 84 | 360 | 11.0 | 20.0 | 0.00 | 0.00 | 0.00 | 16 | 973.0 |
| 20260509125048 | 84 | 360 | 11.0 | 18.0 | 0.00 | 0.00 | 0.00 | 16 | 972.9 |
| 20260509124552 | 84 | 360 | 7.0 | 13.0 | 0.00 | 0.00 | 0.00 | 16 | 972.9 |
| 20260509124049 | 84 | 360 | 9.0 | 13.0 | 0.00 | 0.00 | 0.00 | 16 | 972.8 |
| 20260509123549 | 84 | 360 | 9.0 | 15.0 | 0.00 | 0.00 | 0.00 | 16 | 972.7 |
| 20260509123049 | 84 | 360 | 9.0 | 16.0 | 0.00 | 0.00 | 0.00 | 16 | 972.7 |
| 20260509122548 | 84 | 360 | 9.0 | 16.0 | 0.00 | 0.00 | 0.00 | 16 | 972.6 |
| 20260509122048 | 84 | 360 | 11.0 | 15.0 | 0.00 | 0.00 | 0.00 | 16 | 972.6 |
| 20260509121550 | 84 | 360 | 7.0 | 14.0 | 0.00 | 0.00 | 0.00 | 16 | 972.6 |
| 20260509121053 | 85 | 360 | 7.0 | 15.0 | 0.00 | 0.00 | 0.00 | 17 | 972.6 |
| 20260509120549 | 85 | 360 | 8.0 | 17.0 | 0.00 | 0.00 | 0.00 | 16 | 972.6 |
| 20260509120050 | 85 | 360 | 12.0 | 17.0 | 0.00 | 0.00 | 0.00 | 16 | 972.6 |
| 20260509115548 | 85 | 360 | 10.0 | 16.0 | 0.00 | 0.00 | 0.00 | 16 | 972.5 |
| 20260509115048 | 85 | 360 | 12.0 | 16.0 | 0.00 | 0.00 | 0.00 | 17 | 972.5 |
| 20260509114548 | 85 | 360 | 9.0 | 17.0 | 0.00 | 0.00 | 0.00 | 17 | 972.6 |
| 20260509114049 | 85 | 360 | 8.0 | 17.0 | 0.00 | 0.00 | 0.00 | 17 | 972.7 |
| 20260509113549 | 85 | 360 | 7.0 | 16.0 | 0.00 | 0.00 | 0.00 | 17 | 972.5 |
| 20260509113049 | 85 | 360 | 10.0 | 16.0 | 0.00 | 0.00 | 0.00 | 17 | 972.4 |
| 20260509112548 | 85 | 360 | 9.0 | 14.0 | 0.00 | 0.00 | 0.00 | 17 | 972.4 |
| 20260509112049 | 85 | 360 | 7.0 | 14.0 | 0.00 | 0.00 | 0.00 | 17 | 972.4 |
| 20260509111552 | 85 | 360 | 8.0 | 15.0 | 0.00 | 0.00 | 0.00 | 17 | 972.4 |
| 20260509111049 | 86 | 360 | 10.0 | 20.0 | 0.00 | 0.00 | 0.00 | 17 | 972.5 |
| 20260509110551 | 86 | 360 | 7.0 | 20.0 | 0.00 | 0.00 | 0.00 | 17 | 972.3 |
| 20260509110049 | 86 | 360 | 7.0 | 14.0 | 0.00 | 0.00 | 0.00 | 17 | 972.3 |
| 20260509105549 | 86 | 360 | 7.0 | 18.0 | 0.00 | 0.00 | 0.00 | 17 | 972.2 |
| 20260509105049 | 86 | 360 | 9.0 | 18.0 | 0.00 | 0.00 | 0.00 | 17 | 972.2 |
| 20260509104554 | 86 | 360 | 9.0 | 16.0 | 0.00 | 0.00 | 0.00 | 17 | 972.2 |
| 20260509104048 | 86 | 360 | 8.0 | 17.0 | 0.00 | 0.00 | 0.00 | 17 | 972.4 |
| 20260509103548 | 86 | 360 | 10.0 | 17.0 | 0.00 | 0.00 | 0.00 | 17 | 972.2 |
| 20260509103058 | 86 | 360 | 10.0 | 16.0 | 0.00 | 0.00 | 0.00 | 18 | 972.1 |
| 20260509102549 | 86 | 360 | 10.0 | 16.0 | 0.00 | 0.00 | 0.00 | 18 | 972.1 |
| 20260509102049 | 86 | 360 | 9.0 | 16.0 | 0.00 | 0.00 | 0.00 | 18 | 972.1 |
| 20260509101549 | 87 | 360 | 8.0 | 17.0 | 0.00 | 0.00 | 0.00 | 18 | 972.2 |
| 20260509101048 | 87 | 360 | 9.0 | 17.0 | 0.00 | 0.00 | 0.00 | 18 | 972.2 |
| 20260509100548 | 87 | 360 | 11.0 | 16.0 | 0.00 | 0.00 | 0.00 | 17 | 972.1 |
| 20260509100049 | 87 | 360 | 9.0 | 16.0 | 0.00 | 0.00 | 0.00 | 17 | 972.1 |
| 20260509095549 | 87 | 360 | 10.0 | 17.0 | 0.00 | 0.00 | 0.00 | 17 | 972.1 |
| 20260509095049 | 87 | 360 | 11.0 | 16.0 | 0.00 | 0.00 | 0.00 | 17 | 972.0 |
| 20260509094557 | 87 | 360 | 8.0 | 17.0 | 0.00 | 0.00 | 0.00 | 17 | 972.1 |
| 20260509094048 | 88 | 360 | 10.0 | 17.0 | 0.00 | 0.00 | 0.00 | 17 | 972.2 |
| 20260509093549 | 88 | 360 | 10.0 | 18.0 | 0.00 | 0.00 | 0.00 | 17 | 972.2 |
| 20260509093049 | 88 | 360 | 13.0 | 18.0 | 0.00 | 0.00 | 0.00 | 16 | 972.1 |
| 20260509092549 | 88 | 360 | 11.0 | 18.0 | 0.00 | 0.00 | 0.00 | 16 | 972.1 |
| 20260509092052 | 88 | 360 | 10.0 | 18.0 | 0.00 | 0.00 | 0.00 | 16 | 972.0 |
| 20260509091554 | 88 | 360 | 12.0 | 18.0 | 0.00 | 0.00 | 0.00 | 15 | 972.1 |
| 20260509091049 | 89 | 360 | 9.0 | 18.0 | 0.00 | 0.00 | 0.00 | 15 | 972.1 |
| 20260509090549 | 89 | 360 | 12.0 | 19.0 | 0.00 | 0.00 | 0.00 | 15 | 972.1 |
| 20260509090055 | 89 | 360 | 13.0 | 20.0 | 0.00 | 0.00 | 0.00 | 15 | 972.0 |
| 20260509085548 | 89 | 360 | 14.0 | 21.0 | 0.00 | 0.00 | 0.00 | 14 | 972.0 |
| 20260509085048 | 89 | 360 | 14.0 | 23.0 | 0.00 | 0.00 | 0.00 | 14 | 972.1 |
| 20260509084558 | 89 | 360 | 13.0 | 24.0 | 0.00 | 0.00 | 0.00 | 14 | 972.1 |
| 20260509084049 | 89 | 360 | 12.0 | 22.0 | 0.00 | 0.00 | 0.00 | 14 | 972.0 |
| 20260509083548 | 90 | 360 | 11.0 | 22.0 | 0.00 | 0.00 | 0.00 | 14 | 971.9 |
| 20260509083104 | 90 | 360 | 15.0 | 21.0 | 0.00 | 0.00 | 0.00 | 13 | 971.9 |
| 20260509082548 | 90 | 360 | 12.0 | 22.0 | 0.00 | 0.00 | 0.00 | 13 | 971.9 |
| 20260509082052 | 90 | 360 | 13.0 | 22.0 | 0.00 | 0.00 | 0.00 | 13 | 972.1 |
| 20260509081549 | 90 | 360 | 13.0 | 23.0 | 0.00 | 0.00 | 0.00 | 13 | 972.0 |
| 20260509081049 | 90 | 360 | 12.0 | 24.0 | 0.00 | 0.00 | 0.00 | 12 | 971.9 |
| 20260509080552 | 90 | 360 | 13.0 | 18.0 | 0.00 | 0.00 | 0.00 | 12 | 971.9 |
| 20260509080051 | 90 | 360 | 11.0 | 17.0 | 0.00 | 0.00 | 0.00 | 12 | 971.9 |
| 20260509075548 | 90 | 360 | 9.0 | 17.0 | 0.00 | 0.00 | 0.00 | 12 | 972.0 |
| 20260509075050 | 90 | 360 | 8.0 | 18.0 | 0.00 | 0.00 | 0.00 | 12 | 972.0 |
| 20260509074608 | 90 | 360 | 9.0 | 18.0 | 0.00 | 0.00 | 0.00 | 12 | 971.9 |
| 20260509074048 | 91 | 360 | 10.0 | 16.0 | 0.00 | 0.00 | 0.00 | 12 | 971.9 |
| 20260509073549 | 91 | 360 | 8.0 | 15.0 | 0.00 | 0.00 | 0.00 | 12 | 972.0 |
| 20260509073103 | 91 | 360 | 8.0 | 15.0 | 0.00 | 0.00 | 0.00 | 12 | 972.1 |
| 20260509072549 | 91 | 360 | 9.0 | 16.0 | 0.00 | 0.00 | 0.00 | 12 | 972.0 |
| 20260509072048 | 91 | 360 | 9.0 | 16.0 | 0.00 | 0.00 | 0.00 | 12 | 972.0 |
| 20260509071556 | 91 | 360 | 8.0 | 16.0 | 0.00 | 0.00 | 0.00 | 12 | 972.0 |
| 20260509071049 | 91 | 360 | 9.0 | 17.0 | 0.00 | 0.00 | 0.00 | 12 | 972.0 |
| 20260509070549 | 91 | 360 | 11.0 | 19.0 | 0.00 | 0.00 | 0.00 | 12 | 972.1 |
| 20260509070054 | 91 | 360 | 10.0 | 19.0 | 0.00 | 0.00 | 0.00 | 12 | 972.1 |
| 20260509065548 | 91 | 360 | 11.0 | 19.0 | 0.00 | 0.00 | 0.00 | 12 | 972.1 |
| 20260509065048 | 91 | 360 | 9.0 | 19.0 | 0.00 | 0.00 | 0.00 | 12 | 972.0 |
| 20260509064549 | 91 | 360 | 11.0 | 17.0 | 0.00 | 0.00 | 0.00 | 12 | 972.0 |
| 20260509064048 | 91 | 360 | 12.0 | 17.0 | 0.00 | 0.00 | 0.00 | 12 | 972.1 |
| 20260509063549 | 91 | 360 | 8.0 | 19.0 | 0.00 | 0.00 | 0.00 | 12 | 972.1 |
| 20260509063059 | 92 | 360 | 11.0 | 19.0 | 0.00 | 0.00 | 0.00 | 12 | 972.0 |
| 20260509062549 | 92 | 360 | 11.0 | 18.0 | 0.00 | 0.00 | 0.00 | 12 | 972.0 |
| 20260509062049 | 92 | 360 | 12.0 | 18.0 | 0.00 | 0.00 | 0.00 | 12 | 972.0 |
| 20260509061548 | 92 | 360 | 13.0 | 19.0 | 0.00 | 0.00 | 0.00 | 12 | 972.0 |
| 20260509061050 | 92 | 360 | 11.0 | 19.0 | 0.00 | 0.00 | 0.00 | 12 | 972.1 |